Tracking 20721 objects as of 1-Jun-2020
HD Live streaming from Space Station
objects crossing your sky now

ARIANE 5 DEB (SYLDA)

Track ARIANE 5 DEB (SYLDA) now!


NORAD ID: 44037
Int'l Code: 2019-007D
Perigee: 249.9 km
Apogee: 35,751.1 km
Inclination: 3.1 °
Period: 631.1 minutes
Semi major axis: 24371 km
RCS: Unknown
Launch date: February 5, 2019
Source: France (FR)
Launch site: FRENCH GUIANA (FRGUI)

Note: This is SATELLITE DEBRIS
aabbcc
Your satellite tracking list
Your tracking list is empty




NASA's NSSDC Master Catalog

Two Line Element Set (TLE):
1 44037U 19007D   20151.40855881 +.00001095 +00000-0 +24953-3 0  9994
2 44037 003.0612 066.1056 7283339 225.0665 045.0357 02.28181119010937
Source of the keplerian elements: AFSPC